Vertical_Velocity
-1 2 0 -1 3 -3 -0 -1 1 -2 -2 -2 -0 -1 6 1 2 -6 -4 -2 -2 -0 1 2 1 1 -2 -1 5 2 1 1 -2 2 3 3 3 -3 1 -1 -1 0 -1 -0 -1 -0 0 0 0
-1 -0 1 -0 2 -1 0 1 2 1 -3 1 -0 0 -0 -3 -2 -2 3 2 1 3 3 -1 -2 -1 -2 -4 2 2 4 2 1 -4 -1 1 2 -0 -1 -2 1 1 -2 -0 0 1 0 -1 -1
-2 1 0 2 -2 -1 0 -0 1 2 -1 1 -1 0 3 2 4 -3 -3 2 4 3 4 1 -1 0 -2 -1 -1 2 2 1 2 0 2 1 3 -4 2 -2 2 -3 -0 0 -1 0 1 2 1
-0 -0 3 -0 -1 0 -1 -2 -2 -2 1 1 3 2 2 2 1 -1 -2 -2 1 1 1 2 2 1 -0 1 -0 1 3 1 -2 3 -2 -2 5 -2 3 -4 3 -3 -2 2 -1 -1 -0 -0 1
-2 0 1 -1 -1 2 2 -2 -3 -2 1 -1 -1 1 -2 -0 -1 -1 -1 0 2 1 -1 1 2 3 3 2 0 0 4 3 2 6 2 2 1 -2 2 -3 1 -2 -2 0 1 -3 -1 2 -0
0 -3 2 -2 -2 2 2 -3 -1 -0 -1 4 -0 -2 3 -1 4 2 2 2 3 3 7 -0 -2 1 0 -0 1 2 4 3 -0 3 4 3 -1 0 -1 -3 1 -1 -3 -2 -1 -0 -2 -1 -0
-3 4 -3 1 -2 1 3 0 -4 -2 -4 -4 4 -2 0 1 -2 -2 -1 3 2 -0 -3 2 2 2 -1 2 -1 -1 -1 0 1 3 2 1 -1 -1 1 0 3 -1 -1 0 -1 -1 -0 1 -2
1 0 -1 -1 -2 -0 2 -0 -3 -4 2 -4 -0 -2 -4 -6 0 2 -1 -0 2 1 -1 -1 2 -2 -4 3 0 1 3 2 2 2 0 -1 -1 1 4 1 3 2 -0 -1 -2 -1 -1 0 0
-2 4 -5 -3 -0 0 -1 -0 -2 -1 1 -4 -6 -5 1 -2 -4 -1 5 2 3 4 3 0 1 1 4 -1 1 2 -2 1 -1 0 2 2 1 0 2 1 2 -0 0 0 -1 -2 -1 0 1
-6 0 -1 -0 3 0 -0 -1 -3 -1 1 -1 -2 -5 -2 -1 -3 -1 -1 -1 -1 2 -0 -0 -2 -2 3 0 2 0 -2 3 2 1 3 4 0 2 2 1 3 -2 -1 -1 -0 -1 -2 -2 -1
-4 -9 7 -2 1 3 1 4 -2 -2 0 7 0 3 1 0 -3 -2 1 0 3 6 2 0 -0 -4 4 4 4 -2 1 3 2 3 2 2 1 3 0 0 1 -0 -1 -1 -1 -0 -0 -0 0
-8 -5 4 6 -3 1 -4 -2 3 -8 -5 2 -5 1 -3 -0 -2 1 3 0 -1 0 6 0 1 -1 1 0 1 -2 3 1 1 2 1 1 2 2 0 1 3 1 -1 -0 -1 -0 0 1 0
-7 -0 -2 9 -5 -3 1 1 -2 -20 7 -0 3 1 -2 1 1 -5 -2 -2 1 -1 -1 0 -2 -1 -4 3 1 0 4 1 1 1 2 2 1 1 -2 -1 0 2 1 0 -0 -1 1 2 0
-6 -4 -1 1 2 -7 -4 8 -7 5 8 -1 -1 -5 -4 -1 3 -1 -6 -2 -1 -2 3 2 -0 -2 1 -1 1 3 1 2 3 2 1 1 1 1 2 2 0 0 -1 -1 1 -0 -1 -1 1
-0 -5 1 -4 7 -10 5 -7 -25 18 10 2 -6 0 -3 -0 -5 -4 9 -2 5 6 3 3 2 1 -1 1 2 1 -1 -4 -2 1 1 2 1 2 -0 -0 3 1 -1 -3 -1 1 1 0 1
2 2 5 -2 6 -3 14 -32 -2 17 0 -2 4 -5 2 -5 -5 -1 2 -2 -2 -2 -6 6 1 1 0 5 3 1 0 1 2 -2 -2 -1 -0 -0 1 2 2 -2 -3 -3 -1 -2 -2 -2 -2
9 -1 -7 -3 6 3 -0 -3 -3 -1 2 -1 -3 -4 -2 0 -7 -7 -5 3 -3 -0 3 0 -0 -1 4 4 5 3 1 0 -4 -1 -1 2 1 0 1 3 1 0 -1 -1 -1 -1 -2 -0 -0
-9 -3 -2 -17 -2 -4 3 -2 -12 1 -1 1 1 -6 -1 -3 -16 8 -0 3 8 3 -4 4 1 3 3 5 2 -0 0 -0 -1 -1 -1 -1 0 -0 -0 1 0 -1 -1 -3 -4 -3 -2 0 -2
5 5 1 10 7 -3 3 0 -6 1 2 -2 -2 3 -4 -3 1 -3 3 -6 1 1 -1 -4 0 0 -3 -2 -2 -2 -1 -0 -3 2 -1 -0 -1 1 2 2 -1 -1 -2 -2 -4 -0 -2 -1 1
-3 3 1 -3 -2 -0 11 -21 8 -8 -3 -6 5 4 -2 -0 0 -10 -2 -3 -4 8 6 4 2 -2 3 -0 1 -1 4 4 0 1 1 2 1 1 0 2 1 -1 -1 1 -1 0 -0 1 2
5 -7 17 3 0 -2 4 -55 10 4 -15 6 -2 -0 9 -2 -3 -3 -10 -5 7 -5 -4 -3 -2 6 6 9 1 -0 2 2 -5 -2 4 4 3 -1 3 1 -2 -2 -2 -0 -1 1 1 -2 -1
1 13 -1 3 6 -9 12 -45 -0 9 -8 -20 -8 -7 -0 -6 -1 -7 -7 -7 -3 -8 4 1 -3 2 4 6 7 8 2 12 5 3 7 3 0 1 -0 -2 -3 -0 -1 -1 2 1 -1 0 0
-19 2 8 5 1 12 5 7 -51 -0 -5 -8 -24 -4 -11 -5 1 -1 -1 5 -2 5 -3 5 5 5 3 4 4 4 3 -0 11 3 4 -0 1 2 -2 -4 -1 -1 -2 2 6 -4 -1 0 1
6 11 11 11 6 10 5 13 -68 -10 -7 -26 -7 -6 -1 7 -1 -2 3 5 -2 -6 1 3 3 6 1 6 0 1 2 9 1 2 3 2 0 3 -1 2 -0 -0 -0 -1 -2 -1 -1 -1 -1
10 13 4 7 6 -12 -11 21 -68 -2 -1 -5 -3 -2 3 5 2 -1 3 -5 -0 -1 2 1 -1 -2 3 4 1 1 4 5 4 -1 3 5 2 0 0 -0 -1 -2 -2 -1 -3 -2 2 -0 -1
-23 -4 -11 -6 -2 -6 4 -17 -41 -15 -5 -1 -2 -6 1 -6 -1 -4 -8 -4 3 2 3 5 0 -8 -1 -0 4 -1 5 -4 -1 2 3 4 -1 -3 -2 -2 -1 1 -1 0 1 -1 -2 -1 -1
1 12 -20 3 -2 2 -8 -10 -11 -10 -1 -6 -5 -7 -9 0 -5 -4 -4 -6 2 3 1 4 -2 -5 -1 2 8 -0 -5 -6 9 -2 -2 -3 -3 -4 -2 -0 2 1 -2 -2 -1 -2 -1 -1 -2
-13 10 18 14 1 0 -9 -6 -21 -6 -3 -5 -9 -9 -3 5 2 -3 2 -3 1 3 2 1 1 3 4 6 8 5 6 7 -0 -0 -2 0 1 3 2 -2 -2 -0 -1 -1 -1 -2 -3 -2 -1
-5 22 13 -1 -10 -2 -1 -28 -9 -7 -3 -4 1 3 5 3 5 7 5 5 3 3 5 2 1 0 -1 2 3 2 3 -3 1 4 0 -0 2 3 0 2 2 -1 -1 -2 1 1 -1 -1 -1
3 -11 -6 -6 -2 -6 9 -81 -16 -5 -5 -4 -15 -1 -6 -0 2 2 5 5 1 6 3 5 3 2 4 4 4 1 0 0 1 6 2 1 2 5 3 1 -1 -2 -1 -0 -3 -4 -2 -3 -2
Height
3144 3145 3147 3149 3154 3151 3150 3151 3150 3150 3151 3151 3150 3153 3155 3156 3158 3162 3159 3159 3161 3164 3167 3168 3170 3172 3174 3175 3179 3181 3183 3184 3185 3185 3186 3187 3188 3188 3189 3189 3189 3189 3189 3188 3188 3189 3189 3189 3189
3142 3144 3146 3147 3150 3149 3150 3149 3148 3148 3150 3150 3150 3153 3155 3156 3157 3158 3159 3159 3159 3162 3165 3168 3170 3172 3174 3176 3179 3181 3183 3184 3185 3187 3187 3187 3188 3189 3189 3190 3189 3189 3189 3189 3189 3189 3189 3190 3190
3140 3143 3145 3146 3146 3146 3148 3148 3147 3147 3148 3149 3151 3153 3155 3156 3156 3157 3157 3157 3157 3159 3164 3167 3170 3172 3174 3177 3179 3181 3183 3184 3186 3187 3187 3188 3188 3188 3189 3190 3190 3190 3189 3189 3189 3189 3189 3189 3190
3139 3142 3143 3143 3143 3144 3145 3146 3145 3146 3147 3148 3150 3152 3154 3154 3154 3155 3155 3155 3157 3159 3163 3167 3170 3172 3175 3177 3178 3180 3182 3184 3186 3186 3188 3188 3189 3189 3189 3190 3191 3191 3189 3189 3189 3190 3190 3190 3190
3138 3139 3139 3139 3140 3142 3143 3144 3144 3145 3146 3148 3149 3151 3151 3152 3152 3153 3154 3156 3158 3160 3162 3165 3168 3172 3174 3176 3178 3180 3182 3184 3185 3186 3187 3187 3188 3188 3188 3189 3191 3191 3190 3190 3190 3190 3190 3191 3190
3136 3137 3137 3136 3139 3140 3141 3141 3142 3143 3144 3146 3148 3149 3151 3151 3151 3153 3155 3157 3158 3159 3161 3163 3167 3169 3173 3176 3178 3180 3181 3183 3185 3185 3186 3187 3187 3188 3188 3188 3190 3191 3191 3191 3190 3191 3191 3191 3191
3133 3134 3133 3134 3136 3138 3140 3139 3140 3141 3142 3145 3146 3147 3149 3150 3151 3153 3155 3156 3158 3159 3160 3162 3165 3167 3171 3174 3176 3178 3180 3182 3183 3184 3185 3187 3187 3187 3188 3188 3189 3191 3191 3191 3191 3191 3191 3191 3191
3131 3131 3129 3131 3133 3136 3138 3138 3138 3140 3141 3142 3143 3145 3147 3149 3150 3151 3153 3154 3155 3157 3158 3160 3163 3166 3169 3171 3175 3176 3177 3179 3181 3182 3184 3186 3186 3186 3187 3188 3189 3190 3190 3190 3191 3191 3191 3191 3191
3128 3128 3125 3127 3129 3133 3135 3136 3136 3137 3138 3139 3141 3143 3145 3146 3148 3149 3150 3151 3150 3152 3155 3158 3161 3165 3167 3169 3172 3173 3176 3178 3179 3180 3183 3184 3185 3185 3186 3187 3189 3190 3190 3190 3190 3190 3190 3191 3191
3124 3123 3121 3124 3126 3129 3131 3133 3134 3135 3135 3136 3139 3141 3142 3144 3145 3147 3148 3148 3149 3151 3154 3156 3159 3162 3165 3166 3170 3171 3174 3176 3177 3178 3180 3181 3183 3184 3185 3186 3187 3188 3188 3189 3189 3189 3189 3190 3190
3118 3118 3120 3120 3123 3124 3126 3128 3130 3131 3133 3135 3136 3137 3139 3141 3143 3144 3146 3147 3149 3150 3153 3155 3157 3158 3162 3164 3168 3169 3172 3174 3175 3176 3178 3179 3180 3182 3182 3183 3184 3185 3186 3186 3187 3187 3187 3188 3188
3114 3116 3116 3117 3119 3119 3121 3123 3124 3127 3130 3130 3130 3132 3135 3137 3140 3142 3144 3145 3147 3149 3152 3154 3155 3156 3159 3163 3165 3167 3170 3171 3173 3175 3175 3177 3178 3178 3179 3180 3181 3181 3182 3183 3183 3183 3184 3185 3186
3108 3111 3111 3112 3114 3115 3116 3118 3119 3121 3125 3126 3127 3128 3131 3134 3136 3138 3140 3143 3144 3146 3149 3151 3153 3155 3157 3160 3161 3164 3167 3168 3170 3172 3173 3174 3175 3175 3175 3177 3178 3178 3178 3178 3179 3180 3181 3181 3182
3103 3105 3106 3107 3107 3110 3111 3112 3115 3116 3120 3122 3123 3125 3127 3130 3133 3135 3136 3139 3140 3143 3145 3147 3149 3152 3154 3156 3159 3162 3164 3165 3167 3168 3169 3170 3171 3172 3172 3174 3174 3175 3175 3175 3175 3176 3176 3177 3177
3096 3100 3100 3101 3103 3104 3106 3105 3105 3111 3114 3116 3119 3121 3122 3125 3127 3130 3133 3135 3137 3139 3142 3144 3146 3148 3151 3153 3156 3158 3160 3162 3164 3165 3166 3167 3167 3168 3169 3170 3171 3171 3172 3173 3173 3173 3173 3173 3174
3088 3091 3092 3096 3097 3097 3100 3096 3103 3106 3107 3109 3112 3115 3118 3119 3122 3125 3127 3130 3132 3134 3137 3139 3142 3144 3146 3149 3151 3153 3156 3157 3159 3160 3161 3163 3163 3164 3166 3167 3167 3167 3168 3169 3169 3169 3170 3170 3171
3078 3081 3084 3090 3092 3091 3092 3090 3098 3100 3100 3102 3104 3107 3110 3113 3115 3117 3121 3124 3126 3129 3131 3133 3136 3139 3141 3144 3146 3149 3152 3154 3155 3155 3156 3157 3159 3160 3162 3163 3163 3164 3164 3165 3166 3166 3166 3166 3166
3068 3073 3078 3081 3085 3086 3085 3082 3089 3092 3093 3095 3097 3100 3101 3103 3108 3112 3112 3116 3119 3122 3125 3128 3131 3134 3137 3139 3141 3143 3146 3147 3149 3151 3151 3152 3154 3156 3157 3158 3159 3159 3160 3161 3161 3161 3162 3162 3162
3068 3067 3070 3076 3081 3081 3079 3076 3078 3085 3083 3086 3089 3092 3093 3095 3098 3101 3105 3107 3110 3113 3117 3121 3124 3127 3130 3133 3135 3138 3140 3143 3145 3146 3147 3147 3149 3151 3152 3153 3154 3154 3155 3156 3156 3156 3157 3157 3157
3060 3060 3060 3071 3074 3076 3074 3065 3067 3070 3072 3076 3080 3082 3085 3087 3089 3092 3094 3097 3100 3105 3109 3114 3117 3121 3124 3127 3130 3132 3135 3137 3139 3140 3141 3143 3144 3145 3147 3147 3148 3149 3149 3150 3150 3151 3151 3151 3150
3047 3048 3060 3065 3068 3068 3069 3058 3051 3054 3059 3065 3066 3070 3074 3078 3081 3083 3085 3087 3091 3094 3099 3105 3110 3114 3116 3120 3123 3125 3128 3130 3131 3134 3136 3138 3139 3140 3140 3140 3141 3142 3142 3143 3144 3144 3144 3144 3143
3038 3045 3054 3059 3063 3058 3065 3045 3038 3043 3044 3048 3054 3057 3061 3067 3071 3074 3076 3077 3080 3086 3091 3097 3102 3106 3110 3114 3116 3118 3123 3124 3126 3129 3130 3131 3133 3134 3134 3135 3135 3136 3136 3137 3137 3138 3138 3138 3138
3030 3042 3047 3051 3052 3054 3052 3056 2992 3033 3028 3033 3040 3045 3050 3054 3059 3063 3066 3069 3073 3077 3082 3088 3093 3097 3102 3106 3110 3113 3115 3117 3121 3123 3124 3125 3126 3126 3126 3127 3129 3129 3129 3131 3132 3132 3132 3132 3132
3031 3039 3043 3044 3047 3041 3035 3044 2977 3018 3017 3021 3025 3030 3036 3041 3046 3052 3056 3059 3063 3067 3073 3079 3084 3089 3094 3099 3102 3105 3107 3110 3113 3116 3118 3119 3118 3118 3119 3120 3121 3122 3123 3124 3125 3126 3126 3126 3125
3023 3030 3033 3039 3038 3014 3028 3030 2976 3003 3007 3009 3013 3016 3021 3024 3030 3038 3044 3050 3054 3059 3063 3069 3076 3080 3085 3090 3093 3097 3100 3103 3107 3109 3111 3112 3111 3112 3112 3114 3115 3116 3117 3118 3119 3120 3119 3118 3118
3007 3016 3017 3020 3018 3013 3021 2999 2982 2995 2999 3006 3006 3009 3014 3015 3016 3022 3032 3040 3047 3051 3055 3060 3067 3072 3078 3082 3086 3089 3093 3097 3099 3102 3104 3104 3104 3105 3106 3108 3109 3110 3112 3112 3113 3113 3112 3111 3110
3000 3003 3008 3013 3016 3017 3000 2977 2979 2984 2988 2991 2996 3001 3005 3007 3007 3011 3021 3029 3036 3042 3049 3054 3059 3065 3070 3075 3079 3082 3086 3090 3093 3095 3096 3097 3097 3098 3100 3102 3103 3104 3105 3106 3106 3106 3104 3102 3100
2987 2996 3002 3004 3006 3006 2978 2976 2962 2974 2977 2982 2984 2987 2992 2998 3002 3008 3014 3020 3027 3034 3040 3045 3051 3057 3062 3067 3071 3075 3078 3082 3085 3087 3089 3090 3090 3093 3095 3096 3097 3099 3100 3100 3099 3098 3096 3094 3091
2978 2984 2985 2991 2993 2986 2970 2960 2958 2962 2967 2971 2976 2981 2985 2988 2993 2999 3005 3010 3016 3024 3030 3036 3042 3047 3052 3057 3062 3065 3069 3073 3077 3080 3082 3083 3084 3087 3089 3090 3091 3092 3092 3092 3092 3090 3088 3085 3081
2963 2965 2971 2975 2975 2981 2984 2941 2956 2962 2965 2969 2973 2974 2978 2983 2986 2991 2997 3002 3007 3013 3019 3025 3031 3037 3043 3048 3052 3056 3060 3065 3070 3073 3076 3078 3078 3079 3081 3083 3084 3084 3085 3084 3083 3081 3078 3075 3072